User: anonymous   Login
Location: Clatteringshaws Loch
(55.0508°N, 4.2860°W)
Time: 23:48:25
(UTC+01:00)
Language:

Cosmos 2221 Rocket - Orbit

View from above orbital plane
View from above orbital plane
View from above satellite
View from above satellite

Ground track
Ground track

The orbit data is extracted from the following two-line orbital elements,

1 22237U 92080B   17178.90035545 +.00000065 +00000-0 +57855-5 0  9996
2 22237 082.5129 107.7636 0020023 166.1795 236.3674 14.78318693324939
Epoch (UTC): 27 June 2017 21:36:30
Eccentricity: 0.0020023
inclination: 82.5129°
perigee height: 620 km
apogee height: 648 km
right ascension of ascending node: 107.7636°
argument of perigee: 166.1795°
revolutions per day: 14.78318693
mean anomaly at epoch: 236.3674°
orbit number at epoch: 32493

The dashed part of the orbit path shows where the satellite is in the earth's shadow,  

DLR